EZY27A LPPD-LPMA

Flight info

Callsign EZY27A
Flight time 1h 4m
Altitude 39000
Route VSM DCT ETROX DCT 35N020W DCT IRKID DCT IBBAN
Aircraft A339/H-SADE1E2E3GHIJ3J5M1P2RWXY/LB2D1

Departure

Time 2026-05-05 22:58
Airport João Paulo II Airport (LPPD)

Arrival

Time 2026-05-06 00:02
Airport Cristiano Ronaldo International Airport (LPMA)
Time Latitude Longitude Altitude Speed Heading
2026-05-05 22:57 37.75549 -25.87075 7327 ft 284 kts 258°
2026-05-05 22:58 37.74561 -25.89244 8305 ft 290 kts 227°
2026-05-05 22:58 37.72816 -25.90571 9234 ft 298 kts 197°
2026-05-05 22:58 37.70764 -25.90676 10130 ft 303 kts 167°
2026-05-05 22:58 37.68823 -25.89531 10657 ft 320 kts 140°
2026-05-05 22:59 37.67386 -25.87347 10959 ft 338 kts 119°
2026-05-05 22:59 37.66228 -25.84616 11432 ft 352 kts 113°
2026-05-05 22:59 37.65163 -25.81812 12166 ft 357 kts 112°
2026-05-05 22:59 37.64091 -25.78940 12891 ft 363 kts 112°
2026-05-05 23:00 37.61648 -25.73258 14244 ft 379 kts 124°
2026-05-05 23:00 37.59776 -25.70880 14953 ft 383 kts 138°
2026-05-05 23:00 37.57683 -25.68782 15621 ft 388 kts 142°
2026-05-05 23:01 37.55474 -25.66775 16303 ft 393 kts 144°
2026-05-05 23:01 37.53202 -25.64817 16990 ft 397 kts 145°
2026-05-05 23:01 37.50894 -25.62867 17652 ft 402 kts 145°
2026-05-05 23:01 37.48562 -25.60898 18337 ft 406 kts 145°
2026-05-05 23:02 37.46200 -25.58893 18945 ft 411 kts 145°
2026-05-05 23:02 37.43818 -25.56867 19520 ft 415 kts 144°
2026-05-05 23:02 37.41431 -25.54834 20092 ft 420 kts 144°
2026-05-05 23:02 37.38995 -25.52760 20654 ft 425 kts 144°
2026-05-05 23:03 37.36526 -25.50659 21235 ft 430 kts 144°
2026-05-05 23:03 37.34034 -25.48540 21810 ft 435 kts 144°
2026-05-05 23:03 37.31513 -25.46398 22386 ft 440 kts 144°
2026-05-05 23:03 37.28964 -25.44234 22978 ft 444 kts 144°
2026-05-05 23:04 37.26420 -25.42075 23560 ft 449 kts 144°
2026-05-05 23:04 37.23814 -25.39867 24122 ft 454 kts 144°
2026-05-05 23:04 37.21167 -25.37624 24617 ft 458 kts 144°
2026-05-05 23:04 37.18534 -25.35397 25099 ft 463 kts 144°
2026-05-05 23:05 37.15851 -25.33127 25581 ft 468 kts 144°
2026-05-05 23:05 37.13132 -25.30830 26079 ft 472 kts 144°
2026-05-05 23:05 37.11315 -25.29295 26402 ft 475 kts 143°
2026-05-05 23:05 37.08552 -25.26965 26884 ft 480 kts 143°
2026-05-05 23:06 37.05771 -25.24620 27364 ft 484 kts 143°
2026-05-05 23:06 37.02964 -25.22256 27850 ft 488 kts 143°
2026-05-05 23:06 37.00130 -25.19870 28306 ft 492 kts 143°
2026-05-05 23:06 36.97439 -25.17204 28721 ft 492 kts 133°
2026-05-05 23:07 36.95135 -25.14050 29190 ft 489 kts 123°
2026-05-05 23:07 36.93280 -25.10560 29628 ft 487 kts 115°
2026-05-05 23:07 36.91544 -25.06893 30035 ft 492 kts 115°
2026-05-05 23:07 36.89785 -25.03207 30502 ft 495 kts 115°
2026-05-05 23:08 36.87991 -24.99480 30902 ft 499 kts 115°
2026-05-05 23:08 36.86211 -24.95804 31314 ft 502 kts 115°
2026-05-05 23:08 36.84392 -24.92057 31704 ft 505 kts 115°
2026-05-05 23:08 36.82558 -24.88287 32114 ft 509 kts 115°
2026-05-05 23:09 36.80709 -24.84489 32495 ft 512 kts 115°
2026-05-05 23:09 36.78870 -24.80717 32862 ft 515 kts 115°
2026-05-05 23:09 36.77000 -24.76885 33180 ft 518 kts 115°
2026-05-05 23:09 36.75118 -24.73033 33454 ft 521 kts 115°
2026-05-05 23:10 36.73221 -24.69155 33702 ft 523 kts 115°
2026-05-05 23:10 36.71322 -24.65278 33925 ft 525 kts 115°
2026-05-05 23:10 36.69412 -24.61383 34195 ft 525 kts 115°
2026-05-05 23:10 36.67503 -24.57496 34472 ft 525 kts 115°
2026-05-05 23:11 36.65621 -24.53668 34732 ft 525 kts 115°
2026-05-05 23:11 36.63710 -24.49786 35000 ft 524 kts 115°
2026-05-05 23:11 36.61805 -24.45918 35257 ft 523 kts 115°
2026-05-05 23:11 36.59893 -24.42040 35526 ft 523 kts 115°
2026-05-05 23:12 36.57987 -24.38179 35785 ft 522 kts 115°
2026-05-05 23:12 36.56107 -24.34374 36043 ft 522 kts 115°
2026-05-05 23:12 36.54199 -24.30518 36300 ft 522 kts 115°
2026-05-05 23:12 36.52291 -24.26667 36561 ft 521 kts 115°
2026-05-05 23:13 36.50385 -24.22822 36820 ft 521 kts 115°
2026-05-05 23:13 36.48484 -24.18993 37079 ft 520 kts 115°
2026-05-05 23:13 36.46608 -24.15219 37344 ft 519 kts 115°
2026-05-05 23:13 36.44706 -24.11396 37588 ft 519 kts 115°
2026-05-05 23:14 36.42808 -24.07586 37854 ft 519 kts 115°
2026-05-05 23:14 36.40925 -24.03770 38104 ft 516 kts 113°
2026-05-05 23:14 36.39342 -23.99804 38362 ft 508 kts 105°
2026-05-05 23:14 36.38029 -23.95741 38584 ft 507 kts 104°
2026-05-05 23:15 36.36714 -23.91675 38835 ft 507 kts 105°
2026-05-05 23:15 36.35411 -23.87671 38957 ft 506 kts 105°
2026-05-05 23:15 36.32767 -23.79588 38953 ft 505 kts 105°
2026-05-05 23:16 36.30117 -23.71520 38952 ft 504 kts 105°
2026-05-05 23:16 36.27460 -23.63461 38955 ft 504 kts 105°
2026-05-05 23:17 36.24798 -23.55410 38942 ft 504 kts 105°
2026-05-05 23:17 36.22152 -23.47430 38944 ft 503 kts 105°
2026-05-05 23:18 36.19483 -23.39402 38949 ft 503 kts 105°
2026-05-05 23:18 36.16826 -23.31430 38942 ft 502 kts 105°
2026-05-05 23:19 36.14148 -23.23416 38943 ft 502 kts 105°
2026-05-05 23:19 36.11472 -23.15433 38943 ft 502 kts 105°
2026-05-05 23:20 36.08792 -23.07455 38938 ft 502 kts 105°
2026-05-05 23:20 36.06123 -22.99533 38936 ft 502 kts 105°
2026-05-05 23:21 36.03431 -22.91565 38935 ft 501 kts 105°
2026-05-05 23:21 36.00736 -22.83607 38938 ft 501 kts 105°
2026-05-05 23:22 35.98043 -22.75678 38928 ft 501 kts 105°
2026-05-05 23:22 35.95359 -22.67793 38930 ft 500 kts 106°
2026-05-05 23:23 35.92650 -22.59855 39216 ft 501 kts 106°
2026-05-05 23:23 35.89934 -22.51924 39338 ft 499 kts 106°
2026-05-05 23:24 35.87245 -22.44089 39327 ft 498 kts 106°
2026-05-05 23:24 35.84543 -22.36231 39329 ft 498 kts 106°
2026-05-05 23:25 35.81827 -22.28357 39323 ft 497 kts 107°
2026-05-05 23:25 35.79131 -22.20559 39320 ft 497 kts 107°
2026-05-05 23:26 35.76412 -22.12714 39325 ft 497 kts 107°
2026-05-05 23:26 35.73691 -22.04884 39317 ft 497 kts 107°
2026-05-05 23:27 35.70966 -21.97060 39317 ft 496 kts 107°
2026-05-05 23:27 35.68256 -21.89299 39313 ft 496 kts 107°
2026-05-05 23:28 35.66990 -21.85680 39313 ft 496 kts 107°
2026-05-05 23:28 35.61549 -21.70823 39308 ft 439 kts 104°
2026-05-05 23:29 35.59142 -21.63407 39306 ft 455 kts 108°
2026-05-05 23:29 35.55385 -21.52869 39307 ft 483 kts 111°
2026-05-05 23:29 35.53943 -21.49359 39326 ft 491 kts 111°
2026-05-05 23:30 35.44173 -21.21220 39272 ft 494 kts 108°
2026-05-05 23:30 35.33107 -20.90424 39271 ft 491 kts 109°
2026-05-05 23:31 35.22007 -20.59808 39252 ft 491 kts 109°
2026-05-05 23:31 35.10933 -20.29576 39257 ft 490 kts 110°
2026-05-05 23:32 34.99577 -19.99364 39247 ft 493 kts 115°
2026-05-05 23:32 34.84381 -19.71307 39272 ft 495 kts 120°
2026-05-05 23:33 34.69140 -19.43512 39227 ft 496 kts 121°
2026-05-05 23:33 34.53762 -19.15677 39254 ft 495 kts 121°
2026-05-05 23:34 34.38296 -18.87911 39233 ft 494 kts 122°
2026-05-05 23:34 34.22806 -18.60317 39232 ft 494 kts 123°
2026-05-05 23:35 34.07390 -18.33064 39211 ft 494 kts 123°
2026-05-05 23:35 33.91757 -18.05700 39191 ft 495 kts 127°
2026-05-05 23:36 33.75240 -17.79194 39181 ft 496 kts 127°
2026-05-05 23:36 33.58717 -17.52829 39176 ft 496 kts 128°
2026-05-05 23:37 33.42072 -17.26463 39173 ft 496 kts 128°
2026-05-05 23:37 33.25339 -17.00168 39179 ft 494 kts 129°
2026-05-05 23:38 33.08568 -16.73999 39172 ft 494 kts 129°
2026-05-05 23:38 32.95860 -16.51176 39157 ft 499 kts 102°
2026-05-05 23:39 32.95343 -16.42963 38571 ft 495 kts 92°
2026-05-05 23:39 32.95557 -16.34766 36787 ft 498 kts 79°
2026-05-05 23:39 32.97178 -16.26669 34647 ft 506 kts 77°
2026-05-05 23:39 32.98603 -16.18385 32325 ft 509 kts 84°
2026-05-05 23:40 32.98212 -16.10191 30368 ft 499 kts 104°
2026-05-05 23:40 32.96209 -16.02455 28597 ft 480 kts 120°
2026-05-05 23:40 32.92446 -15.96082 26880 ft 463 kts 131°
2026-05-05 23:40 32.88097 -15.90640 25199 ft 444 kts 147°
2026-05-05 23:41 32.82782 -15.87211 23557 ft 429 kts 158°
2026-05-05 23:41 32.78161 -15.82816 21724 ft 430 kts 130°
2026-05-05 23:41 32.75793 -15.76379 19964 ft 426 kts 100°
2026-05-05 23:41 32.76368 -15.69537 18255 ft 414 kts 68°
2026-05-05 23:42 32.79720 -15.64293 16467 ft 392 kts 33°
2026-05-05 23:42 32.84672 -15.62364 14714 ft 369 kts 356°
2026-05-05 23:42 32.89223 -15.64320 12881 ft 352 kts 319°
2026-05-05 23:42 32.91772 -15.69032 11340 ft 331 kts 285°
2026-05-05 23:43 32.93730 -15.74124 10852 ft 345 kts 306°
2026-05-05 23:43 32.96696 -15.78601 10485 ft 342 kts 307°
2026-05-05 23:43 32.99585 -15.83124 10219 ft 343 kts 299°
2026-05-05 23:43 33.01177 -15.88423 10158 ft 327 kts 287°
2026-05-05 23:44 33.02429 -15.93082 10163 ft 271 kts 287°
2026-05-05 23:44 33.03632 -15.97558 10159 ft 285 kts 287°
2026-05-05 23:44 33.04833 -16.02023 10143 ft 284 kts 287°
2026-05-05 23:44 33.05628 -16.04984 10162 ft 284 kts 287°
2026-05-05 23:45 33.07236 -16.10982 10151 ft 284 kts 287°
2026-05-05 23:45 33.08435 -16.15467 10154 ft 284 kts 287°
2026-05-05 23:45 33.09633 -16.19960 10153 ft 284 kts 287°
2026-05-05 23:45 33.10830 -16.24455 10153 ft 285 kts 287°
2026-05-05 23:46 33.12025 -16.28953 10152 ft 285 kts 287°
2026-05-05 23:46 33.13223 -16.33470 10151 ft 285 kts 287°
2026-05-05 23:46 33.14420 -16.37990 10152 ft 285 kts 287°
2026-05-05 23:46 33.15615 -16.42510 10150 ft 285 kts 287°
2026-05-05 23:47 33.16791 -16.46969 10152 ft 286 kts 287°
2026-05-05 23:47 33.17959 -16.51397 10121 ft 262 kts 287°
2026-05-05 23:47 33.18974 -16.55258 9725 ft 229 kts 287°
2026-05-05 23:47 33.19914 -16.58849 8893 ft 226 kts 287°
2026-05-05 23:48 33.20472 -16.62436 8226 ft 213 kts 259°
2026-05-05 23:48 33.18573 -16.65021 7153 ft 221 kts 198°
2026-05-05 23:48 33.15594 -16.64609 6412 ft 216 kts 160°
2026-05-05 23:48 33.12689 -16.63485 6148 ft 218 kts 163°
2026-05-05 23:49 33.09735 -16.62620 5894 ft 218 kts 166°
2026-05-05 23:49 33.06813 -16.61871 5641 ft 217 kts 166°
2026-05-05 23:49 33.03861 -16.61119 5390 ft 217 kts 166°
2026-05-05 23:49 33.00915 -16.60356 5127 ft 215 kts 165°
2026-05-05 23:50 32.97943 -16.59871 4866 ft 218 kts 175°
2026-05-05 23:50 32.94934 -16.59726 4427 ft 216 kts 174°
2026-05-05 23:50 32.92947 -16.59608 4392 ft 217 kts 174°
2026-05-05 23:50 32.89909 -16.59418 4398 ft 217 kts 173°
2026-05-05 23:51 32.86869 -16.59234 4398 ft 222 kts 174°
2026-05-05 23:51 32.83825 -16.59088 4405 ft 217 kts 174°
2026-05-05 23:51 32.80839 -16.58948 4391 ft 205 kts 174°
2026-05-05 23:51 32.78181 -16.58853 4402 ft 182 kts 175°
2026-05-05 23:52 32.75607 -16.58751 4392 ft 179 kts 174°
2026-05-05 23:52 32.73048 -16.58851 4391 ft 188 kts 183°
2026-05-05 23:52 32.70460 -16.59182 4393 ft 189 kts 184°
2026-05-05 23:52 32.67872 -16.59507 4397 ft 189 kts 183°
2026-05-05 23:53 32.65292 -16.59843 4399 ft 185 kts 183°
2026-05-05 23:53 32.62732 -16.60197 4390 ft 183 kts 184°
2026-05-05 23:53 32.60448 -16.61488 4394 ft 192 kts 219°
2026-05-05 23:53 32.58055 -16.61873 4399 ft 181 kts 149°
2026-05-05 23:54 32.57108 -16.59451 4392 ft 171 kts 75°
2026-05-05 23:54 32.58945 -16.57917 4390 ft 180 kts 358°
2026-05-05 23:54 32.60731 -16.59808 4409 ft 189 kts 286°
2026-05-05 23:54 32.61414 -16.62820 4389 ft 181 kts 284°
2026-05-05 23:55 32.61039 -16.64842 4408 ft 178 kts 235°
2026-05-05 23:55 32.60365 -16.66116 4395 ft 184 kts 236°
2026-05-05 23:55 32.59804 -16.67469 4410 ft 185 kts 248°
2026-05-05 23:55 32.59347 -16.68927 4386 ft 189 kts 249°
2026-05-05 23:56 32.58882 -16.70380 4220 ft 188 kts 249°
2026-05-05 23:56 32.58415 -16.71833 3873 ft 190 kts 250°
2026-05-05 23:56 32.57971 -16.73286 3571 ft 187 kts 256°
2026-05-05 23:56 32.57841 -16.74763 3437 ft 175 kts 265°
2026-05-05 23:57 32.57632 -16.76177 3142 ft 174 kts 261°
2026-05-05 23:57 32.57410 -16.77612 2901 ft 188 kts 263°
2026-05-05 23:57 32.57501 -16.79182 2845 ft 187 kts 283°
2026-05-05 23:57 32.57705 -16.80653 2618 ft 177 kts 283°
2026-05-05 23:58 32.57912 -16.82080 2269 ft 172 kts 285°
2026-05-05 23:58 32.58302 -16.83337 2085 ft 154 kts 306°
2026-05-05 23:58 32.58999 -16.84186 1847 ft 141 kts 337°
2026-05-05 23:58 32.59935 -16.84347 1684 ft 132 kts 18°
2026-05-05 23:59 32.60680 -16.83793 1509 ft 129 kts 38°
2026-05-05 23:59 32.61423 -16.83212 1270 ft 125 kts 34°
2026-05-05 23:59 32.62188 -16.82644 1049 ft 134 kts 33°
2026-05-05 23:59 32.62990 -16.82086 940 ft 145 kts 30°
2026-05-06 00:00 32.63883 -16.81463 932 ft 142 kts 35°
2026-05-06 00:00 32.64637 -16.80783 776 ft 131 kts 36°
2026-05-06 00:00 32.65441 -16.80231 749 ft 135 kts 25°
2026-05-06 00:00 32.66317 -16.79876 643 ft 131 kts 19°
2026-05-06 00:01 32.67172 -16.79619 481 ft 131 kts 16°
2026-05-06 00:01 32.68036 -16.79237 368 ft 130 kts 24°
2026-05-06 00:01 32.68755 -16.78632 260 ft 128 kts 40°
2026-05-06 00:01 32.69379 -16.77933 169 ft 108 kts 45°
2026-05-06 00:02 32.69712 -16.77539 183 ft 43 kts 45°
2026-05-06 00:02 32.69895 -16.77320 199 ft 33 kts 41°
2026-05-06 00:02 32.69958 -16.77216 191 ft 6 kts 89°
2026-05-06 00:02 32.69931 -16.77183 191 ft 6 kts 153°
2026-05-06 00:03 32.69879 -16.77174 183 ft 9 kts 185°
2026-05-06 00:03 32.69811 -16.77214 179 ft 14 kts 218°
2026-05-06 00:03 32.69735 -16.77309 174 ft 19 kts 225°
2026-05-06 00:03 32.69636 -16.77426 179 ft 19 kts 223°
2026-05-06 00:04 32.69545 -16.77539 180 ft 20 kts 226°
2026-05-06 00:04 32.69441 -16.77666 176 ft 23 kts 226°
2026-05-06 00:04 32.69336 -16.77788 175 ft 4 kts 211°
2026-05-06 00:04 32.69331 -16.77789 175 ft 1 kts 200°
2026-05-06 00:05 32.69285 -16.77758 179 ft 5 kts 144°
2026-05-06 00:05 32.69284 -16.77758 179 ft 0 kts 144°
2026-05-06 00:07 32.69285 -16.77758 179 ft 0 kts 144°